TimeCST,TemperatureF,Dew PointF,Humidity,Sea Level PressureIn,VisibilityMPH,Wind Direction,Wind SpeedMPH,Gust SpeedMPH,PrecipitationIn,Events,Conditions,WindDirDegrees,DateUTC
12:14 AM,30.2,28.4,93,29.74,10.0,SW,4.6,-,N/A,,Clear,230,2013-01-19 06:14:00
12:34 AM,30.2,28.4,93,29.73,10.0,SW,4.6,-,N/A,,Clear,230,2013-01-19 06:34:00
12:55 AM,30.2,28.4,93,29.73,10.0,SW,4.6,-,N/A,,Clear,220,2013-01-19 06:55:00
1:14 AM,30.2,28.4,93,29.73,10.0,WSW,6.9,-,N/A,,Clear,240,2013-01-19 07:14:00
1:34 AM,32.0,28.4,87,29.73,10.0,SW,5.8,-,N/A,,Clear,230,2013-01-19 07:34:00
1:55 AM,30.2,28.4,93,29.73,10.0,SW,6.9,-,N/A,,Scattered Clouds,230,2013-01-19 07:55:00
2:14 AM,32.0,28.4,87,29.73,10.0,WSW,5.8,-,N/A,,Scattered Clouds,240,2013-01-19 08:14:00
2:34 AM,32.0,28.4,87,29.72,10.0,SW,6.9,-,N/A,,Clear,230,2013-01-19 08:34:00
2:54 AM,32.0,28.4,87,29.71,10.0,WSW,5.8,-,N/A,,Clear,250,2013-01-19 08:54:00
3:14 AM,30.2,28.4,93,29.71,10.0,WSW,5.8,-,N/A,,Mostly Cloudy,250,2013-01-19 09:14:00
3:34 AM,33.8,28.4,81,29.72,10.0,West,5.8,-,N/A,,Scattered Clouds,280,2013-01-19 09:34:00
3:54 AM,32.0,28.4,87,29.72,10.0,WNW,6.9,-,N/A,,Clear,300,2013-01-19 09:54:00
4:14 AM,32.0,28.4,87,29.71,10.0,WNW,6.9,-,N/A,,Clear,290,2013-01-19 10:14:00
4:34 AM,30.2,28.4,93,29.71,10.0,West,5.8,-,N/A,,Clear,280,2013-01-19 10:34:00
4:54 AM,30.2,26.6,86,29.72,10.0,NW,4.6,-,N/A,,Clear,310,2013-01-19 10:54:00
5:14 AM,30.2,26.6,86,29.72,10.0,NW,6.9,-,N/A,,Clear,310,2013-01-19 11:14:00
5:34 AM,30.2,26.6,86,29.72,10.0,WNW,4.6,-,N/A,,Clear,290,2013-01-19 11:34:00
5:54 AM,32.0,26.6,80,29.71,10.0,West,5.8,-,N/A,,Clear,270,2013-01-19 11:54:00
6:14 AM,32.0,26.6,80,29.72,10.0,West,8.1,-,N/A,,Scattered Clouds,270,2013-01-19 12:14:00
6:34 AM,32.0,26.6,80,29.73,10.0,WNW,5.8,-,N/A,,Overcast,290,2013-01-19 12:34:00
6:54 AM,32.0,28.4,87,29.75,10.0,WNW,8.1,-,N/A,,Overcast,300,2013-01-19 12:54:00
7:14 AM,32.0,28.4,87,29.75,10.0,NW,4.6,-,N/A,,Overcast,310,2013-01-19 13:14:00
7:34 AM,33.8,28.4,81,29.76,10.0,NW,6.9,-,N/A,,Overcast,320,2013-01-19 13:34:00
7:54 AM,33.8,28.4,81,29.77,10.0,Calm,Calm,-,N/A,,Mostly Cloudy,290,2013-01-19 13:54:00
8:14 AM,33.8,28.4,81,29.77,10.0,West,6.9,-,N/A,,Scattered Clouds,280,2013-01-19 14:14:00
8:34 AM,33.8,28.4,81,29.78,10.0,WNW,9.2,-,N/A,,Scattered Clouds,300,2013-01-19 14:34:00
8:54 AM,35.6,28.4,75,29.78,10.0,NW,8.1,-,N/A,,Overcast,310,2013-01-19 14:54:00
9:14 AM,32.0,-9999,N/A,29.79,10.0,NW,8.1,-,N/A,,Mostly Cloudy,310,2013-01-19 15:14:00
9:34 AM,35.6,30.2,81,29.82,10.0,NW,10.4,-,N/A,,Mostly Cloudy,320,2013-01-19 15:34:00
9:54 AM,35.6,30.2,81,29.82,10.0,NW,9.2,-,N/A,,Mostly Cloudy,320,2013-01-19 15:54:00
10:14 AM,37.4,30.2,75,29.83,10.0,NNW,12.7,17.3,N/A,,Scattered Clouds,330,2013-01-19 16:14:00
10:34 AM,37.4,30.2,75,29.83,10.0,NNW,13.8,20.7,N/A,,Clear,340,2013-01-19 16:34:00
10:54 AM,39.2,32.0,75,29.83,10.0,North,20.7,26.5,N/A,,Scattered Clouds,350,2013-01-19 16:54:00
11:14 AM,37.4,30.2,75,29.84,10.0,North,21.9,29.9,N/A,,Mostly Cloudy,350,2013-01-19 17:14:00
11:34 AM,37.4,32.0,81,29.84,10.0,NNW,13.8,19.6,N/A,,Mostly Cloudy,330,2013-01-19 17:34:00
11:54 AM,37.4,30.2,75,29.84,10.0,North,20.7,29.9,N/A,,Mostly Cloudy,350,2013-01-19 17:54:00
12:15 PM,37.4,30.2,75,29.85,10.0,NNW,23.0,29.9,N/A,,Mostly Cloudy,340,2013-01-19 18:15:00
12:34 PM,35.6,28.4,75,29.87,10.0,North,33.4,40.3,N/A,,Overcast,10,2013-01-19 18:34:00
12:55 PM,26.6,23.0,86,29.90,10.0,North,32.2,41.4,N/A,,Overcast,10,2013-01-19 18:55:00
1:34 PM,23.0,19.4,86,29.94,10.0,North,31.1,39.1,N/A,,Overcast,360,2013-01-19 19:34:00
1:54 PM,21.2,17.6,86,29.96,10.0,North,23.0,35.7,N/A,,Overcast,10,2013-01-19 19:54:00
2:14 PM,21.2,17.6,86,29.97,4.0,North,27.6,35.7,N/A,Snow,Light Snow,360,2013-01-19 20:14:00
2:34 PM,19.4,12.2,74,29.99,10.0,North,31.1,40.3,N/A,,Mostly Cloudy,350,2013-01-19 20:34:00
2:54 PM,19.4,10.4,68,30.01,10.0,North,33.4,46.0,N/A,,Clear,350,2013-01-19 20:54:00
3:14 PM,17.6,8.6,68,30.02,10.0,NNW,31.1,41.4,N/A,,Scattered Clouds,340,2013-01-19 21:14:00
3:34 PM,15.8,5.0,62,30.04,10.0,North,34.5,54.1,N/A,,Clear,350,2013-01-19 21:34:00
3:54 PM,15.8,5.0,62,30.06,10.0,North,32.2,46.0,N/A,,Clear,350,2013-01-19 21:54:00
4:14 PM,14.0,5.0,67,30.08,10.0,North,27.6,40.3,N/A,,Clear,360,2013-01-19 22:14:00
4:34 PM,12.2,3.2,67,30.11,10.0,North,25.3,40.3,N/A,,Scattered Clouds,350,2013-01-19 22:34:00
4:54 PM,10.4,3.2,73,30.13,10.0,North,26.5,34.5,N/A,,Clear,350,2013-01-19 22:54:00
5:14 PM,10.4,3.2,73,30.14,10.0,North,29.9,38.0,N/A,,Scattered Clouds,350,2013-01-19 23:14:00
5:34 PM,8.6,1.4,73,30.16,10.0,North,28.8,41.4,N/A,,Scattered Clouds,350,2013-01-19 23:34:00
5:54 PM,8.6,1.4,73,30.18,10.0,North,26.5,34.5,N/A,,Unknown,350,2013-01-19 23:54:00
6:14 PM,8.6,1.4,73,30.20,10.0,North,19.6,36.8,N/A,,Scattered Clouds,350,2013-01-20 00:14:00
6:34 PM,6.8,3.2,85,30.22,5.0,North,18.4,32.2,N/A,,Mostly Cloudy,350,2013-01-20 00:34:00
6:54 PM,6.8,3.2,85,30.23,1.8,North,24.2,29.9,N/A,Snow,Light Snow,360,2013-01-20 00:54:00
7:14 PM,6.8,1.4,79,30.24,2.5,North,21.9,32.2,N/A,,Overcast,360,2013-01-20 01:14:00
7:34 PM,5.0,-0.4,78,30.25,10.0,North,24.2,31.1,N/A,,Mostly Cloudy,360,2013-01-20 01:34:00
7:54 PM,5.0,-0.4,78,30.27,10.0,North,21.9,29.9,N/A,,Scattered Clouds,350,2013-01-20 01:54:00
8:14 PM,3.2,-2.2,78,30.28,10.0,North,23.0,31.1,N/A,,Mostly Cloudy,360,2013-01-20 02:14:00
8:34 PM,3.2,-0.4,85,30.29,7.0,North,18.4,25.3,N/A,,Overcast,350,2013-01-20 02:34:00
8:54 PM,3.2,-2.2,78,30.30,7.0,North,19.6,26.5,N/A,,Overcast,360,2013-01-20 02:54:00
9:14 PM,3.2,-2.2,78,30.30,10.0,North,16.1,21.9,N/A,,Mostly Cloudy,10,2013-01-20 03:14:00
9:34 PM,1.4,-0.4,92,30.30,5.0,North,12.7,18.4,N/A,,Overcast,350,2013-01-20 03:34:00
9:54 PM,1.4,-2.2,85,30.30,10.0,North,12.7,23.0,N/A,,Overcast,350,2013-01-20 03:54:00
10:14 PM,1.4,-2.2,85,30.30,10.0,North,18.4,-,N/A,,Overcast,360,2013-01-20 04:14:00
10:34 PM,1.4,-2.2,85,30.32,5.0,North,15.0,23.0,N/A,,Overcast,360,2013-01-20 04:34:00
10:54 PM,1.4,-4.0,78,30.32,10.0,North,16.1,25.3,N/A,,Scattered Clouds,350,2013-01-20 04:54:00
11:14 PM,1.4,-4.0,78,30.33,10.0,North,17.3,21.9,N/A,,Scattered Clouds,350,2013-01-20 05:14:00
11:34 PM,-0.4,-5.8,78,30.32,10.0,North,16.1,20.7,N/A,,Scattered Clouds,350,2013-01-20 05:34:00
11:54 PM,-0.4,-5.8,78,30.32,10.0,North,13.8,19.6,N/A,,Scattered Clouds,350,2013-01-20 05:54:00